Location: East Horndon
(51.5667°N, 0.3500°E)
Time: 06:46:42
(UTC+00:00)

Cosmos 1809 Rocket - Pass Details

Date: 08 November 2025
Orbit: 941 x 963 km, 82.5° (Epoch: 11 December)

Event Time Altitude Azimuth Distance (km) Brightness Sun altitude
Rises 04:15:48 0° 186° (S) 3,611 7.4 -26.3°
Reaches altitude 10° 04:18:16 10° 185° (S) 2,666 6.7 -26.0°
Maximum altitude 04:24:23 84° 99° (E) 958 4.4 -25.0°
Drops below altitude 10° 04:30:30 10° 12° (NNE) 2,673 7.0 -24.1°
Sets 04:32:59 0° 12° (NNE) 3,620 7.7 -23.7°
